Hourly Data Report for February 10, 2021

KUGAARUK CLIMATE
NUNAVUT
Current Station Operator: ECCC - MSC

68°32'15.060" N
89°47'47.020" W
15.80 m
2303094
71407
NBB

Download Data

Hourly Data (February 2021)
Hourly Data Report for February 10, 2021
TIME
LST
Temp Definition
°C
Dew Point Definition
°C
Rel Hum Definition
%
Precip. Amount Definition
mm

Wind Dir Definition
10's deg

Wind Spd Definition
km/h
Visibility Definition
km
Stn Press Definition
kPa
Hmdx Definition


Wind Chill Definition


Weather Definition


00:00 -18.3 -20.4 84 0.0 0 1   103.56   -19 LegendNANA
01:00 -17.9 -20.0 84 0.0 24 1   103.60   -19 LegendNANA
02:00 -18.1 -20.2 84 0.0 28 6   103.60   -23 LegendNANA
03:00 -18.3 -20.4 84 0.0 27 4   103.59   -22 LegendNANA
04:00 -18.7 -20.8 83 0.0 26 4   103.59   -22 LegendNANA
05:00 -18.6 -20.8 83 0.0 24 3   103.57   -21 LegendNANA
06:00 -18.7 -20.8 83 0.0 25 13   103.55   -27 LegendNANA
07:00 -18.8 -21.0 83 0.0 26 10   103.54   -26 LegendNANA
08:00 -19.2 -21.4 83 0.0 25 10   103.52   -26 LegendNANA
09:00 -19.4 -21.6 82 0.0 24 10   103.49   -26 LegendNANA
10:00 -19.6 -22.0 81 0.0 26 7   103.47   -25 LegendNANA
11:00 -20.0 -22.5 81 0.0 26 5   103.47   -24 LegendNANA
12:00 -21.2 -23.9 79 0.0 26 6   103.45   -26 LegendNANA
13:00 -21.6 -24.3 79 0.0 26 5   103.44   -26 LegendNANA
14:00 -22.0 -24.5 80 0.0 25 6   103.44   -27 LegendNANA
15:00 -22.4 -25.0 80 0.0 24 6   103.42   -28 LegendNANA
16:00 -23.1 -25.7 80 0.5 25 6   103.40   -29 LegendNANA
17:00 -23.7 -26.2 80 0.0 25 5   103.38   -28 LegendNANA
18:00 -24.4 -27.0 79 0.0 26 5   103.33   -29 LegendNANA
19:00 -25.4 -28.1 78 0.0 26 4   103.32   -29 LegendNANA
20:00 -25.9 -28.6 78 0.0 26 4   103.31   -30 LegendNANA
21:00 -27.6 -30.5 76 0.0 26 5   103.28   -33 LegendNANA
22:00 -27.6 -30.4 76 0.2 25 5   103.24   -33 LegendNANA
23:00 -27.7 -30.6 76 0.0 26 5   103.23   -33 LegendNANA

Notes on Data Quality.

Legend

  • E = Estimated
  • M = Missing
  • NA = Not Available*
  • [empty] = Indicates an unobserved value
Date modified: